Terug naar catalogus

N-1 R/B

ActiefLEO
NORAD 13493·ROCKET BODY·🇯🇵 Japan

Gelanceerd Sep 3, 1982 vanaf Tanegashima Space Center

Loading…

Volgende Passages (komende 24 uur)

TLE

VersSource: Space-Track

Epoch: Sep 14, 2026, 06:24 UTC

1 13493U 82087B   26257.26724295 -.00000059  00000-0  75651-4 0  9997
2 13493  44.6253 340.3283 0173786 197.7767 183.7525 13.44781127163307

Volg N-1 R/B in realtime met AllMySat

Download on the App Store